Cherokee Observed Data For Previous 48 Hours

Caption
Day and Hour Reservoir Elevation (behind dam)* Tailwater Elevation (below dam)* Average Hourly Discharge*
12/16/2018 2 AM EST 1,046.19 926.56 9,310
12/16/2018 3 AM EST 1,046.22 926.56 9,298
12/16/2018 4 AM EST 1,046.25 926.56 9,300
12/16/2018 5 AM EST 1,046.27 926.59 9,310
12/16/2018 6 AM EST 1,046.30 926.57 9,292
12/16/2018 7 AM EST 1,046.35 926.58 9,306
12/16/2018 8 AM EST 1,046.37 926.56 9,303
12/16/2018 9 AM EST 1,046.39 926.57 9,296
12/16/2018 10 AM EST 1,046.42 926.54 9,282
12/16/2018 11 AM EST 1,046.46 926.56 9,290
12/16/2018 12 PM EST 1,046.48 926.58 9,312
12/16/2018 1 PM EST 1,046.51 926.57 9,282
12/16/2018 2 PM EST 1,046.54 926.59 9,287
12/16/2018 3 PM EST 1,046.56 926.57 9,280
12/16/2018 4 PM EST 1,046.59 926.55 9,287
12/16/2018 5 PM EST 1,046.63 926.57 9,281
12/16/2018 6 PM EST 1,046.66 926.56 9,273
12/16/2018 7 PM EST 1,046.70 926.56 9,263
12/16/2018 8 PM EST 1,046.72 926.57 9,276
12/16/2018 9 PM EST 1,046.75 926.56 9,283
12/16/2018 10 PM EST 1,046.77 926.54 9,276
12/16/2018 11 PM EST 1,046.81 926.56 9,243
12/17/2018 12 AM EST 1,046.82 926.54 9,253
12/17/2018 1 AM EST 1,046.85 926.55 9,242
12/17/2018 2 AM EST 1,046.87 926.55 9,258
12/17/2018 3 AM EST 1,046.89 926.52 9,270
12/17/2018 4 AM EST 1,046.92 926.59 9,285
12/17/2018 5 AM EST 1,046.93 926.54 9,253
12/17/2018 6 AM EST 1,046.95 926.57 9,244
12/17/2018 7 AM EST 1,046.97 926.57 9,282
12/17/2018 8 AM EST 1,046.99 926.56 9,248
12/17/2018 9 AM EST 1,047.00 926.55 9,242
12/17/2018 10 AM EST 1,047.01 926.58 9,284
12/17/2018 11 AM EST 1,047.03 926.58 9,330
12/17/2018 12 PM EST 1,047.05 926.57 9,277
12/17/2018 1 PM EST 1,047.06 926.56 9,299
12/17/2018 2 PM EST 1,047.07 926.57 9,309
12/17/2018 3 PM EST 1,047.08 926.55 9,316
12/17/2018 4 PM EST 1,047.09 926.55 9,292
12/17/2018 5 PM EST 1,047.11 926.58 9,310
12/17/2018 6 PM EST 1,047.12 926.57 9,323
12/17/2018 7 PM EST 1,047.14 926.58 9,286
12/17/2018 8 PM EST 1,047.14 926.57 9,286
12/17/2018 9 PM EST 1,047.15 926.59 9,284
12/17/2018 10 PM EST 1,047.18 926.58 9,313
12/17/2018 11 PM EST 1,047.19 926.57 9,293
12/18/2018 12 AM EST 1,047.21 926.58 9,314
12/18/2018 1 AM EST 1,047.23 926.59 9,303
12/18/2018 2 AM EST 1,047.24 926.59 9,327
12/18/2018 3 AM EST 1,047.26 926.59 9,333
12/18/2018 4 AM EST 1,047.28 926.58 9,298
12/18/2018 5 AM EST 1,047.29 926.60 9,288
12/18/2018 6 AM EST 1,047.31 926.58 9,290
12/18/2018 7 AM EST 1,047.34 926.55 9,257

Elevations are in feet above sea level. Discharges are in cubic feet per second and are reported at the end of the hour.